PST,Max TemperatureF,Mean TemperatureF,Min TemperatureF,Max Dew PointF,MeanDew PointF,Min DewpointF,Max Humidity, Mean Humidity, Min Humidity, Max Sea Level PressureIn, Mean Sea Level PressureIn, Min Sea Level PressureIn, Max VisibilityMiles, Mean VisibilityMiles, Min VisibilityMiles, Max Wind SpeedMPH, Mean Wind SpeedMPH, Max Gust SpeedMPH,PrecipitationIn, CloudCover, Events, WindDirDegrees
2013-2-1,45,34,22,33,27,21,96,83,62,30.38,30.34,30.28,10,10,10,10,2,12,0.00,1,,340
2013-2-2,41,33,24,30,26,22,92,81,60,30.41,30.35,30.32,10,10,7,10,3,12,0.00,4,,353
2013-2-3,49,36,22,34,27,21,100,83,54,30.35,30.29,30.22,10,9,7,7,0,9,0.00,3,,320
2013-2-4,49,38,26,34,29,25,92,80,50,30.22,30.13,30.03,10,9,7,7,1,8,0.00,5,,131
2013-2-5,46,37,28,34,29,26,92,78,53,30.10,30.00,29.95,10,9,7,21,5,26,T,4,Rain,281
2013-2-6,45,34,23,28,25,20,96,72,49,30.19,30.07,29.96,10,10,7,14,5,18,0.00,3,,172
2013-2-7,36,27,17,30,25,17,100,86,59,30.01,29.93,29.89,10,6,0,14,5,17,0.11,7,Fog-Snow,271
2013-2-8,39,26,13,22,18,12,91,70,37,30.12,30.07,29.98,10,10,9,22,9,28,0.00,1,,337
2013-2-9,41,29,16,27,20,14,92,74,52,30.18,30.13,30.06,10,10,7,14,5,15,0.00,3,,300
2013-2-10,44,33,21,26,23,22,92,73,41,30.24,30.20,30.15,10,10,7,15,5,17,0.00,2,,335
2013-2-11,50,35,19,29,23,16,92,71,39,30.32,30.25,30.19,10,10,7,13,3,15,0.00,1,,331
2013-2-12,47,35,22,30,26,20,92,79,49,30.45,30.40,30.33,10,10,7,9,1,12,0.00,1,,274
2013-2-13,52,38,24,32,29,23,100,78,42,30.46,30.40,30.33,10,10,7,15,3,18,0.00,4,,320
2013-2-14,53,39,24,33,28,24,92,78,41,30.51,30.46,30.41,10,10,10,12,3,15,0.00,1,,342
2013-2-15,56,38,20,32,27,22,92,74,35,30.47,30.39,30.29,10,10,10,9,2,13,0.00,0,,6
2013-2-16,55,39,23,32,26,21,96,69,38,30.33,30.21,30.11,10,10,7,18,6,25,0.00,2,,298
2013-2-17,43,31,18,23,19,9,88,66,24,30.18,30.12,30.04,10,10,7,10,2,13,0.00,1,,4
2013-2-18,45,35,24,30,24,18,100,75,36,30.03,29.87,29.74,10,8,2,18,4,21,0.01,6,Snow,254
2013-2-19,31,26,20,28,24,19,100,92,81,29.90,29.65,29.57,10,5,0,22,8,25,0.11,7,Fog-Snow,97
2013-2-20,36,21,6,25,17,3,100,80,59,30.07,30.02,29.93,10,9,2,16,4,18,0.00,4,Fog,292
2013-2-21,38,27,15,26,22,14,100,79,54,30.21,30.16,30.06,10,10,7,14,5,17,T,4,,279
2013-2-22,48,37,26,34,29,24,92,84,53,30.24,30.07,29.93,10,8,0,36,8,44,0.11,6,Fog-Rain-Snow,235
2013-2-23,36,29,22,25,22,19,88,76,56,30.36,30.18,30.03,10,8,1,25,8,33,T,5,Snow,310
2013-2-24,42,30,18,25,20,16,92,76,38,30.43,30.33,30.21,10,10,7,7,1,10,0.00,3,,350
2013-2-25,41,34,26,30,23,14,92,69,34,30.32,30.22,30.13,10,9,7,29,11,37,T,5,Snow,284
2013-2-26,41,30,18,23,20,16,92,72,38,30.38,30.33,30.28,10,10,7,9,2,12,0.00,4,,127
2013-2-27,48,34,20,30,23,18,96,68,34,30.40,30.33,30.27,10,10,7,10,3,,0.00,6,,212
2013-2-28,51,41,31,40,36,31,100,85,66,30.52,30.41,30.32,10,10,4,12,4,14,T,7,Rain,161